[[{"header":{"parameterUnit":"m.s-1","parameterCategory":1,"la1":30.2991,"la2":30.254,"lo1":-89.0895,"lo2":-89.0444,"dy":0.0017,"dx":0.0017,"nx":28,"ny":28,"refTime":"2025-07-09T03:00:00:Z","depth":0,"parameterNumber":2,"parameterNumberName":"U-component_of_WINDS"},"data":[0,0,0,0,0,0,0,0,0,0,0,0,0,0,0,0,0,0,0,0,0,0,0,0,0,0,0,0,0,0,0,0,0,0,0,0,0,0,0,0,0,0,0,0,0,0,0,0,0,0,0,0,0,0,0,0,0,0,3.4357,3.4358,0,3.4449,3.445,3.4451,3.443,3.4429,3.4427,3.4425,3.4522,3.4526,3.4531,0,0,0,0,0,0,0,0,0,0,0,0,0,3.4163,3.4167,3.4357,3.4358,3.4359,3.4449,3.445,3.4452,3.4431,3.4429,3.4427,3.4425,3.4521,3.4526,3.4531,0,0,0,0,0,0,0,0,0,0,0,0,0,3.4251,3.4168,3.4357,3.4359,3.4361,3.4449,3.445,3.4452,3.4431,3.4429,3.4426,3.4424,3.4519,3.4525,3.4532,3.4623,0,0,3.4551,3.4554,0,0,0,0,0,0,0,0,3.4246,3.4258,3.4358,3.4359,3.4361,3.4426,3.4418,3.451,3.4432,3.4405,3.4425,3.4422,3.4492,3.4501,3.4524,3.4628,3.4632,3.4552,3.4555,3.4558,3.456,0,0,0,0,0,0,0,3.424,3.4254,3.4393,3.4359,3.4361,3.4357,3.4366,3.4435,3.4462,3.4407,3.4405,3.4416,3.4493,3.4518,3.4526,3.4634,3.4551,3.4557,3.4561,3.4563,3.4815,3.4818,0,0,0,0,0,0,3.4232,3.4249,3.439,3.4396,3.4296,3.4362,3.4373,3.4408,3.4461,3.4467,3.4419,3.4415,3.4508,3.4519,3.4529,3.4638,3.4558,3.4564,3.4568,3.4812,3.4815,3.4819,0,0,0,0,0,0,3.4228,3.4245,3.4387,3.4322,3.434,3.4368,3.4407,3.4411,3.4436,3.447,3.4475,3.4439,3.4507,3.4521,3.4599,3.4641,3.4567,3.4573,3.4809,3.4813,3.4817,3.4857,0,0,0,0,0,0,3.4223,3.4244,3.4279,3.4323,3.4343,3.4455,3.441,3.4414,3.4446,3.4443,3.4491,3.4496,3.4506,3.459,3.4606,3.4648,3.4578,3.4805,3.4811,3.4816,3.4852,3.4862,3.487,0,0,0,0,0,3.4216,3.4287,3.428,3.4298,3.4387,3.4457,3.4469,3.4477,3.445,3.4485,3.4507,3.4495,3.4635,3.4598,3.4616,3.4661,3.4802,3.4809,3.4815,3.4847,3.486,3.487,0,0,0,0,0,0,3.4248,3.4293,3.4286,3.4374,3.4412,3.4453,3.4498,3.4491,3.4538,3.4532,3.4542,3.4553,3.4633,3.4655,3.4614,3.4751,3.4714,3.4725,3.4733,3.4745,3.4754,3.4746,3.4583,0,0,0,0,0,3.4265,3.4317,3.4354,3.4428,3.4447,3.447,3.45,3.4504,3.4544,3.456,3.4588,3.4627,3.468,3.4714,3.4765,3.4856,3.4865,3.4896,3.4905,3.4912,3.492,3.4967,3.4981,3.484,3.484,3.484,0,0,3.4301,3.4332,3.4365,3.4435,3.4465,3.4518,3.4483,3.4542,3.4582,3.4569,3.4644,3.4666,3.4711,3.4795,3.4834,3.4817,3.4961,3.4921,3.4926,3.493,3.4975,3.4989,3.5,3.4844,3.4843,3.4843,0,0,3.4393,3.4423,3.4486,3.4516,3.4561,3.4575,3.4591,3.4634,3.4647,3.4723,3.4713,3.4762,3.4853,3.4884,3.4912,3.5016,3.5005,3.5032,3.508,3.5126,3.5137,3.5147,3.5181,3.5193,3.5041,3.5041,3.5041,0,3.4432,3.4512,3.452,3.4579,3.4609,3.46,3.4663,3.4693,3.4752,3.4774,3.4754,3.4866,3.4896,3.4986,3.5011,3.5035,3.5052,3.5025,3.5135,3.5145,3.5154,3.5186,3.52,3.5044,3.5043,3.5043,3.5043,0,3.4556,3.4612,3.4658,3.4713,3.475,3.4811,3.4828,3.4864,3.4865,3.4881,3.4957,3.4993,3.5049,3.5072,3.5074,3.5162,3.5149,3.5132,3.5095,3.517,3.52,3.5213,3.5047,3.5046,3.5046,3.5045,0,0,3.4669,3.4728,3.4744,3.4769,3.4818,3.4861,3.4922,3.4976,3.5005,3.5048,3.5097,3.5174,3.5158,3.519,3.5195,3.5236,3.5312,3.5213,3.5215,3.5228,3.5409,3.5419,3.5433,3.5307,3.5309,3.5311,3.5404,0,3.4763,3.4868,3.4877,3.4972,3.5022,3.5014,3.5067,3.5102,3.512,3.5165,3.5185,3.5237,3.5214,3.5232,3.5273,3.5294,3.5348,3.5288,3.5352,3.5354,3.5337,3.545,3.5461,3.5547,3.5416,3.5418,3.542,0,3.4886,3.4929,3.5029,3.5069,3.509,3.5137,3.5186,3.5231,3.5271,3.5281,3.5316,3.5315,3.5377,3.534,3.5424,3.5383,3.541,3.5425,3.5429,3.5432,3.5389,3.5454,3.5575,3.5586,3.5439,3.5438,3.5436,0,3.4954,3.5038,3.5108,3.513,3.5179,3.5212,3.5234,3.5272,3.5303,3.5347,3.5367,3.5418,3.5445,3.5485,3.5498,3.547,3.5581,3.5545,3.5589,3.5589,3.5611,3.5609,3.5735,3.5634,3.5633,3.5633,3.5633,0,3.5056,3.5116,3.5139,3.5181,3.5248,3.5259,3.5325,3.5346,3.5379,3.5425,3.5423,3.5466,3.5483,3.5529,3.554,3.5607,3.562,3.5629,3.563,3.5627,3.5625,3.5643,3.5636,3.5637,3.5636,3.5635,3.5635,0,3.5142,3.516,3.5235,3.5275,3.5287,3.5334,3.5369,3.541,3.5426,3.5485,3.5499,3.5525,3.5579,3.5597,3.5663,3.567,3.5747,3.5746,3.5733,3.5732,3.5774,3.5769,3.5913,3.5931,3.5821,3.5822,3.5823,0,3.5204,3.525,3.5295,3.5325,3.5348,3.5398,3.5429,3.5442,3.5475,3.5523,3.5558,3.5611,3.5654,3.5741,3.5766,3.5816,3.5813,3.5861,3.5821,3.5815,3.581,3.5806,3.5809,3.5867,3.5868,3.5869,3.587,0,3.5312,3.5318,3.5363,3.5411,3.5448,3.5487,3.5525,3.555,3.5568,3.5605,3.566,3.5693,3.5759,3.5812,3.5862,3.5886,3.588,3.5883,3.5895,3.589,3.588,3.5883,3.575,3.5878,3.5878,3.5877,3.5877,3.5876,3.5385,3.5425,3.5462,3.5512,3.5542,3.5576,3.5616,3.5637,3.5683,3.5736,3.5742,3.58,3.5838,3.5906,3.5931,3.5977,3.5964,3.5982,3.5986,3.599,3.5991,3.5875,3.5987,3.5987,3.5987,3.5986,3.5986,0,3.549,3.5513,3.5559,3.5611,3.565,3.5642,3.5683,3.5716,3.5767,3.5803,3.5845,3.5907,3.5958,3.5987,3.6037,3.6068,3.6066,3.608,3.6077,3.6081,3.6002,3.5985,3.608,3.608,3.608,3.608,3.608,3.608,3.5548,3.5614,3.5624,3.5704,3.5728,3.5784,3.5807,3.5839,3.5868,3.5936,3.5978,3.5997,3.6029,3.6082,3.6128,3.6135,3.6152,3.6167,3.6172,3.6097,3.6087,3.6078,3.6062,3.6172,3.6172,3.6248,3.6248,3.6249]},{"header":{"parameterUnit":"m.s-1","parameterCategory":1,"la1":30.2991,"la2":30.254,"lo1":-89.0895,"lo2":-89.0444,"dy":0.0017,"dx":0.0017,"nx":28,"ny":28,"refTime":"2025-07-09T03:00:00:Z","depth":0,"parameterNumber":3,"parameterNumberName":"V-component_of_WINDS"},"data":[0,0,0,0,0,0,0,0,0,0,0,0,0,0,0,0,0,0,0,0,0,0,0,0,0,0,0,0,0,0,0,0,0,0,0,0,0,0,0,0,0,0,0,0,0,0,0,0,0,0,0,0,0,0,0,0,0,0,4.9972,4.9974,0,5.0173,5.0175,5.0178,5.0191,5.0189,5.0187,5.0185,5.0379,5.0386,5.0394,0,0,0,0,0,0,0,0,0,0,0,0,0,4.9586,4.9593,4.9972,4.9974,4.9977,5.0173,5.0175,5.0178,5.0192,5.0189,5.0186,5.0184,5.0377,5.0385,5.0394,0,0,0,0,0,0,0,0,0,0,0,0,0,4.9767,4.9596,4.9971,5.0007,5.0013,5.0172,5.0175,5.0179,5.0192,5.0189,5.0186,5.0183,5.0374,5.0385,5.0395,5.0529,0,0,5.0429,5.0433,0,0,0,0,0,0,0,0,4.9757,4.9781,5.0,5.0005,5.0011,5.0154,5.0111,5.0296,5.0193,5.0124,5.0185,5.0181,5.0306,5.0322,5.0367,5.0538,5.0546,5.043,5.0436,5.0441,5.0444,0,0,0,0,0,0,0,4.9744,4.9772,5.0051,5.0003,5.001,5.0009,5.0031,5.0146,5.0231,5.013,5.0131,5.0155,5.0309,5.0357,5.0372,5.0549,5.0429,5.0439,5.0446,5.045,5.0836,5.0839,0,0,0,0,0,0,4.9726,4.9762,5.0044,5.0057,4.9874,5.0019,5.0044,5.0111,5.023,5.0245,5.0158,5.0155,5.034,5.0359,5.0379,5.0541,5.0441,5.0451,5.0457,5.0832,5.0836,5.084,0,0,0,0,0,0,4.9718,4.9752,5.0036,4.991,4.9946,5.0029,5.0105,5.0117,5.0165,5.0251,5.0265,5.0192,5.0338,5.0363,5.0491,5.0548,5.0456,5.0466,5.0828,5.0833,5.0838,5.0867,0,0,0,0,0,0,4.9707,4.9749,4.9803,4.9911,4.9953,5.015,5.0109,5.0123,5.0185,5.0184,5.0287,5.0301,5.0337,5.0475,5.0502,5.0561,5.0474,5.0823,5.083,5.0837,5.0862,5.0873,5.0883,0,0,0,0,0,4.9693,4.9802,4.9806,4.984,5.0024,5.0153,5.0177,5.022,5.019,5.0243,5.0298,5.0298,5.0538,5.0488,5.0519,5.0582,5.0819,5.0828,5.0836,5.0857,5.0871,5.0883,0,0,0,0,0,0,4.9694,4.9816,4.9823,4.997,5.0052,5.0155,5.0225,5.0234,5.0322,5.0316,5.0362,5.0385,5.0511,5.0559,5.0502,5.0715,5.0674,5.0689,5.068,5.0694,5.0704,5.069,5.0483,0,0,0,0,0,4.9713,4.9811,4.9911,5.0031,5.0072,5.0141,5.0199,5.0225,5.031,5.0343,5.0408,5.0486,5.0579,5.0639,5.0729,5.0869,5.0889,5.0927,5.0937,5.0946,5.0957,5.1031,5.1048,5.0868,5.0868,5.0868,0,0,4.9749,4.9828,4.9887,5.0033,5.01,5.0197,5.017,5.0274,5.0346,5.0358,5.0484,5.0533,5.0623,5.0757,5.0819,5.0801,5.1012,5.0956,5.0962,5.097,5.1042,5.1059,5.1074,5.0874,5.0873,5.0872,0,0,4.9867,4.9938,5.0045,5.0112,5.0214,5.0259,5.0284,5.0387,5.0422,5.0549,5.056,5.0642,5.0802,5.0866,5.0919,5.1058,5.1059,5.1086,5.1141,5.1213,5.1227,5.124,5.1287,5.1304,5.1097,5.1097,5.1097,0,4.9899,5.005,5.0097,5.0203,5.0264,5.0283,5.0389,5.0451,5.0575,5.0615,5.0594,5.0794,5.0856,5.1004,5.1038,5.1081,5.1108,5.1074,5.1222,5.1235,5.1247,5.1293,5.1311,5.11,5.11,5.1099,5.1099,0,5.0083,5.0187,5.0261,5.0384,5.0454,5.0559,5.0618,5.0682,5.0702,5.0747,5.0874,5.095,5.1055,5.1092,5.1111,5.1241,5.1227,5.1213,5.1173,5.1266,5.131,5.1328,5.1103,5.1102,5.1102,5.1101,0,0,5.0207,5.0355,5.0381,5.0436,5.0549,5.0628,5.0732,5.0838,5.0891,5.0975,5.106,5.1195,5.1183,5.1243,5.1268,5.1331,5.1433,5.131,5.1312,5.1328,5.1578,5.1587,5.1607,5.1435,5.1439,5.1442,5.157,0,5.0335,5.0525,5.057,5.073,5.0825,5.0843,5.0932,5.1008,5.1053,5.1137,5.1184,5.1278,5.1257,5.1293,5.1356,5.1408,5.1484,5.1399,5.1511,5.1515,5.1487,5.163,5.164,5.1758,5.1588,5.159,5.1593,0,5.0511,5.0602,5.0773,5.0872,5.0913,5.0994,5.1093,5.1174,5.1259,5.1287,5.1354,5.1373,5.1476,5.1431,5.1572,5.1514,5.1562,5.1593,5.1599,5.161,5.1559,5.1643,5.1797,5.1813,5.162,5.1618,5.1616,0,5.0581,5.0747,5.0871,5.0917,5.1036,5.1092,5.1143,5.1225,5.1285,5.1371,5.1409,5.1504,5.1556,5.1626,5.1668,5.1633,5.1805,5.1764,5.1828,5.1826,5.1862,5.1859,5.2024,5.1896,5.1895,5.1895,5.1895,0,5.0719,5.0822,5.0904,5.098,5.1094,5.1142,5.1253,5.1304,5.1376,5.1459,5.1479,5.1554,5.1606,5.1688,5.1721,5.1831,5.1854,5.1876,5.1884,5.1875,5.1871,5.1906,5.1898,5.19,5.1899,5.1898,5.1897,0,5.0818,5.0877,5.1012,5.1114,5.1142,5.1221,5.1306,5.1378,5.1423,5.1527,5.1554,5.1623,5.172,5.177,5.189,5.1912,5.2035,5.2038,5.2008,5.201,5.207,5.2063,5.2262,5.2289,5.2144,5.2145,5.2146,0,5.0901,5.0982,5.1093,5.1151,5.1205,5.1298,5.1361,5.141,5.1473,5.1575,5.1633,5.1732,5.1814,5.1967,5.2026,5.2117,5.2121,5.2184,5.2134,5.2121,5.2119,5.2114,5.212,5.2192,5.2194,5.2195,5.2196,0,5.1042,5.1068,5.1159,5.126,5.1335,5.1415,5.1495,5.154,5.1601,5.167,5.1772,5.1836,5.1959,5.2056,5.2151,5.2199,5.2206,5.2211,5.223,5.2221,5.2199,5.221,5.203,5.2206,5.2205,5.2204,5.2204,5.2203,5.1135,5.1206,5.1296,5.1396,5.1461,5.1535,5.1607,5.1662,5.1749,5.1856,5.1879,5.1985,5.2064,5.2194,5.2245,5.2325,5.2311,5.234,5.2346,5.2352,5.2354,5.2188,5.2343,5.2343,5.2342,5.2342,5.2342,0,5.1275,5.1334,5.1426,5.1538,5.1615,5.162,5.1707,5.177,5.1866,5.1941,5.2022,5.2137,5.223,5.2296,5.239,5.2442,5.2447,5.2464,5.246,5.247,5.2362,5.2336,5.2458,5.2458,5.2458,5.2458,5.2458,5.2458,5.1358,5.1478,5.1514,5.1665,5.1722,5.183,5.1879,5.1945,5.2006,5.2135,5.2214,5.2258,5.2328,5.2427,5.2511,5.2528,5.256,5.2577,5.2593,5.2491,5.2478,5.2467,5.2442,5.2585,5.2585,5.2695,5.2696,5.2696]}]]